• In Latvia
  • List of Countries
  • For 7 days
  • Water Temperature
  • Satellite Maps
  • Weather Map
  • Weather Widgets
  • user-avatar
    Login

    Hourly Weather Latiano

    Today, 23 April, Monday

    Time Temperature Precipitation Wind Pressure Humidity
    00:00 +16°C° 0 mm 2 mps 754 mmHg 68%
    01:00 +16°C° 0 mm 2 mps 754 mmHg 67%
    02:00 +16°C° 0 mm 2 mps 754 mmHg 66%
    03:00 +16°C° 0 mm 2 mps 754 mmHg 65%
    04:00 +16°C° 0 mm 2 mps 753 mmHg 64%
    05:00 +17°C° 0 mm 2 mps 753 mmHg 61%
    06:00 +18°C° 0 mm 2 mps 754 mmHg 58%
    07:00 +19°C° 0 mm 2 mps 754 mmHg 56%
    08:00 +20°C° 0 mm 2 mps 754 mmHg 51%
    09:00 +22°C° 0 mm 3 mps 754 mmHg 47%
    10:00 +24°C° 0 mm 3 mps 754 mmHg 43%
    11:00 +25°C° 0 mm 3 mps 754 mmHg 42%
    12:00 +25°C° 0 mm 3 mps 754 mmHg 42%
    13:00 +26°C° 0 mm 4 mps 754 mmHg 41%
    14:00 +26°C° 0 mm 4 mps 753 mmHg 42%
    15:00 +26°C° 0 mm 4 mps 753 mmHg 43%
    16:00 +25°C° 0 mm 3 mps 753 mmHg 44%
    17:00 +24°C° 0 mm 3 mps 753 mmHg 48%
    18:00 +21°C° 0 mm 3 mps 753 mmHg 52%
    19:00 +20°C° 0 mm 2 mps 753 mmHg 55%
    20:00 +19°C° 0 mm 2 mps 753 mmHg 56%
    21:00 +19°C° 0 mm 2 mps 753 mmHg 56%
    22:00 +19°C° 0 mm 1 mps 753 mmHg 56%
    23:00 +19°C° 0 mm 1 mps 753 mmHg 57%

    Tomorrow, 24 April, Tuesday

    Time Temperature Precipitation Wind Pressure Humidity
    00:00 +19°C° 0 mm 1 mps 754 mmHg 57%
    01:00 +18°C° 0 mm 2 mps 754 mmHg 58%
    02:00 +18°C° 0 mm 2 mps 754 mmHg 59%
    03:00 +17°C° 0 mm 2 mps 754 mmHg 60%
    04:00 +17°C° 0 mm 2 mps 754 mmHg 61%
    05:00 +18°C° 0 mm 2 mps 754 mmHg 60%
    06:00 +19°C° 0 mm 2 mps 754 mmHg 59%
    07:00 +20°C° 0 mm 2 mps 754 mmHg 58%
    08:00 +21°C° 0 mm 2 mps 755 mmHg 55%
    09:00 +24°C° 0 mm 2 mps 755 mmHg 52%
    10:00 +25°C° 0 mm 2 mps 755 mmHg 49%
    11:00 +25°C° 0 mm 2 mps 755 mmHg 47%
    12:00 +26°C° 0 mm 2 mps 755 mmHg 46%
    13:00 +27°C° 0 mm 3 mps 755 mmHg 45%
    14:00 +27°C° 0 mm 3 mps 755 mmHg 45%
    15:00 +26°C° 0 mm 3 mps 755 mmHg 46%
    16:00 +26°C° 0 mm 3 mps 755 mmHg 47%
    17:00 +25°C° 0 mm 2 mps 754 mmHg 51%
    18:00 +23°C° 0 mm 2 mps 754 mmHg 55%
    19:00 +22°C° 0 mm 1 mps 754 mmHg 59%
    20:00 +21°C° 0 mm 1 mps 755 mmHg 61%
    21:00 +21°C° 0 mm 1 mps 755 mmHg 62%
    22:00 +21°C° 0 mm 1 mps 755 mmHg 64%
    23:00 +20°C° 0 mm 1 mps 755 mmHg 65%

    Day after tomorrow, 25 April, Wednesday

    Time Temperature Precipitation Wind Pressure Humidity
    00:00 +20°C° 0 mm 1 mps 755 mmHg 67%
    01:00 +20°C° 0 mm 1 mps 755 mmHg 69%
    02:00 +19°C° 0 mm 1 mps 754 mmHg 70%
    03:00 +19°C° 0 mm 1 mps 754 mmHg 71%
    04:00 +17°C° 0 mm 0 mps 754 mmHg 72%
    05:00 +20°C° 0 mm 1 mps 754 mmHg 69%
    06:00 +21°C° 0 mm 1 mps 754 mmHg 66%
    07:00 +22°C° 0 mm 1 mps 754 mmHg 63%
    08:00 +23°C° 0 mm 1 mps 755 mmHg 59%
    09:00 +24°C° 0 mm 1 mps 755 mmHg 54%
    10:00 +25°C° 0 mm 2 mps 755 mmHg 50%
    11:00 +26°C° 0 mm 2 mps 755 mmHg 48%
    12:00 +27°C° 0 mm 3 mps 755 mmHg 46%
    13:00 +27°C° 0 mm 3 mps 755 mmHg 44%
    14:00 +27°C° 0.1 mm 3 mps 754 mmHg 44%
    15:00 +27°C° 0.1 mm 3 mps 754 mmHg 45%
    16:00 +26°C° 0.1 mm 3 mps 753 mmHg 45%
    17:00 +25°C° 0.1 mm 3 mps 753 mmHg 50%
    18:00 +24°C° 0.1 mm 3 mps 753 mmHg 55%
    19:00 +21°C° 0.1 mm 3 mps 753 mmHg 60%
    20:00 +21°C° 0 mm 3 mps 753 mmHg 61%
    21:00 +20°C° 0 mm 2 mps 753 mmHg 62%
    22:00 +20°C° 0 mm 2 mps 753 mmHg 63%
    23:00 +19°C° 0 mm 2 mps 753 mmHg 64%

    26 April, Thursday

    Time Temperature Precipitation Wind Pressure Humidity
    00:00 +19°C° 0 mm 2 mps 753 mmHg 64%
    01:00 +20°C° 0 mm 1 mps 752 mmHg 65%
    02:00 +20°C° 0 mm 1 mps 752 mmHg 65%
    03:00 +19°C° 0 mm 1 mps 752 mmHg 65%
    04:00 +19°C° 0 mm 1 mps 752 mmHg 65%
    05:00 +20°C° 0 mm 1 mps 752 mmHg 63%
    06:00 +21°C° 0 mm 1 mps 752 mmHg 61%
    07:00 +22°C° 0 mm 1 mps 752 mmHg 58%
    08:00 +23°C° 0 mm 1 mps 752 mmHg 54%
    09:00 +24°C° 0 mm 2 mps 752 mmHg 50%
    10:00 +26°C° 0 mm 2 mps 752 mmHg 46%
    11:00 +26°C° 0 mm 2 mps 752 mmHg 45%
    12:00 +27°C° 0 mm 3 mps 751 mmHg 44%
    13:00 +27°C° 0 mm 3 mps 751 mmHg 43%
    14:00 +27°C° 0 mm 3 mps 750 mmHg 43%
    15:00 +26°C° 0 mm 3 mps 750 mmHg 44%
    16:00 +26°C° 0 mm 3 mps 749 mmHg 44%
    17:00 +25°C° 0 mm 3 mps 749 mmHg 48%
    18:00 +22°C° 0 mm 3 mps 749 mmHg 51%
    19:00 +21°C° 0 mm 2 mps 749 mmHg 55%
    20:00 +20°C° 0 mm 2 mps 750 mmHg 56%
    21:00 +20°C° 0 mm 2 mps 750 mmHg 58%
    22:00 +19°C° 0 mm 2 mps 750 mmHg 59%
    23:00 +19°C° 0 mm 2 mps 750 mmHg 59%

    27 April, Friday

    Time Temperature Precipitation Wind Pressure Humidity
    00:00 +19°C° 0 mm 2 mps 750 mmHg 59%
    01:00 +19°C° 0 mm 1 mps 749 mmHg 59%
    02:00 +19°C° 0 mm 1 mps 749 mmHg 59%
    03:00 +19°C° 0 mm 1 mps 749 mmHg 59%
    04:00 +18°C° 0 mm 2 mps 749 mmHg 59%
    05:00 +19°C° 0 mm 2 mps 749 mmHg 57%
    06:00 +21°C° 0 mm 1 mps 749 mmHg 55%
    07:00 +21°C° 0 mm 1 mps 749 mmHg 53%
    08:00 +23°C° 0 mm 2 mps 749 mmHg 50%
    09:00 +24°C° 0 mm 2 mps 749 mmHg 48%
    10:00 +25°C° 0 mm 2 mps 749 mmHg 45%
    11:00 +26°C° 0 mm 2 mps 749 mmHg 43%
    12:00 +26°C° 0 mm 3 mps 749 mmHg 42%
    13:00 +27°C° 0 mm 3 mps 749 mmHg 40%
    14:00 +27°C° 0 mm 3 mps 748 mmHg 42%
    15:00 +26°C° 0 mm 3 mps 748 mmHg 43%
    16:00 +26°C° 0 mm 3 mps 748 mmHg 45%
    17:00 +25°C° 0 mm 3 mps 748 mmHg 49%
    18:00 +22°C° 0 mm 3 mps 748 mmHg 54%
    19:00 +21°C° 0 mm 2 mps 748 mmHg 58%
    20:00 +21°C° 0 mm 2 mps 748 mmHg 58%
    21:00 +20°C° 0 mm 2 mps 748 mmHg 58%
    22:00 +20°C° 0 mm 2 mps 749 mmHg 58%
    23:00 +20°C° 0 mm 2 mps 748 mmHg 60%

    28 April, Saturday

    Time Temperature Precipitation Wind Pressure Humidity
    00:00 +19°C° 0 mm 2 mps 748 mmHg 61%
    01:00 +19°C° 0 mm 2 mps 748 mmHg 63%
    02:00 +18°C° 0 mm 2 mps 748 mmHg 62%
    03:00 +18°C° 0 mm 3 mps 748 mmHg 62%
    04:00 +18°C° 0 mm 3 mps 747 mmHg 62%
    05:00 +19°C° 0 mm 3 mps 748 mmHg 59%
    06:00 +20°C° 0 mm 3 mps 748 mmHg 56%
    07:00 +21°C° 0 mm 4 mps 748 mmHg 54%
    08:00 +21°C° 0 mm 4 mps 748 mmHg 52%
    09:00 +22°C° 0 mm 4 mps 748 mmHg 51%
    10:00 +23°C° 0 mm 4 mps 748 mmHg 49%
    11:00 +23°C° 0.2 mm 4 mps 748 mmHg 47%
    12:00 +25°C° 0.2 mm 3 mps 748 mmHg 45%
    13:00 +26°C° 0.2 mm 3 mps 748 mmHg 43%
    14:00 +26°C° 0 mm 3 mps 748 mmHg 42%
    15:00 +26°C° 0 mm 3 mps 747 mmHg 41%
    16:00 +26°C° 0 mm 3 mps 747 mmHg 40%
    17:00 +24°C° 0 mm 3 mps 747 mmHg 46%
    18:00 +22°C° 0 mm 3 mps 747 mmHg 51%
    19:00 +20°C° 0 mm 2 mps 747 mmHg 57%
    20:00 +20°C° 0 mm 2 mps 747 mmHg 59%
    21:00 +19°C° 0 mm 2 mps 748 mmHg 61%
    22:00 +19°C° 0 mm 2 mps 748 mmHg 63%
    23:00 +19°C° 0 mm 2 mps 748 mmHg 64%
    Show more